EW6895 Weather Reports


Display with metric or nautical units.
time (UTC)temp
F
wind
direction
speed
MPH
gust
MPH
rain 1hr
in
rain 24hr
in
rain mn
in
humidity
%
barometer
mb
20180920162050 85 232 4.0 10.0 0.00 0.00 0.00 70 1014.3
20180920161544 86 192 5.0 10.0 0.00 0.00 0.00 69 1014.4
20180920161038 85 178 3.0 9.0 0.00 0.00 0.00 71 1014.3
20180920160514 85 194 3.0 8.0 0.00 0.00 0.00 71 1014.3
20180920160105 85 187 5.0 9.0 0.00 0.00 0.00 71 1014.3
20180920155541 85 178 5.0 9.0 0.00 0.00 0.00 71 1014.3
20180920155037 84 207 3.0 8.0 0.00 0.00 0.00 72 1014.3
20180920154528 84 151 4.0 8.0 0.00 0.00 0.00 74 1014.4
20180920154101 84 181 3.0 10.0 0.00 0.00 0.00 73 1014.4
20180920153554 84 203 4.0 10.0 0.00 0.00 0.00 74 1014.4
20180920153050 83 173 4.0 8.0 0.00 0.00 0.00 75 1014.4
20180920152542 83 201 5.0 8.0 0.00 0.00 0.00 77 1014.3
20180920152019 83 162 4.0 7.0 0.00 0.00 0.00 77 1014.3
20180920151512 82 181 3.0 10.0 0.00 0.00 0.00 78 1014.2
20180920151105 82 172 3.0 10.0 0.00 0.00 0.00 78 1014.2
20180920150556 82 182 4.0 9.0 0.00 0.00 0.00 79 1014.2
20180920150051 82 190 4.0 10.0 0.00 0.00 0.00 78 1014.2
20180920145544 82 195 6.0 10.0 0.00 0.00 0.00 77 1014.1
20180920145038 82 161 6.0 10.0 0.00 0.00 0.00 79 1014.1
20180920144516 82 200 3.0 11.0 0.00 0.00 0.00 81 1014.0
20180920144049 81 161 4.0 11.0 0.00 0.00 0.00 81 1014.0
20180920143543 81 161 4.0 9.0 0.00 0.00 0.00 83 1014.0
20180920143038 80 151 3.0 9.0 0.00 0.00 0.00 83 1013.9
20180920142531 80 151 4.0 7.0 0.00 0.00 0.00 84 1013.8
20180920142105 79 192 3.0 7.0 0.00 0.00 0.00 85 1013.7
20180920141600 78 165 3.0 8.0 0.00 0.00 0.00 86 1013.7
20180920141053 78 184 4.0 9.0 0.00 0.00 0.00 85 1013.8
20180920140531 78 212 5.0 9.0 0.00 0.00 0.00 86 1013.8
20180920140025 78 149 4.0 8.0 0.00 0.00 0.00 87 1013.8
20180920135518 77 151 3.0 8.0 0.00 0.00 0.00 88 1013.8
20180920135012 77 187 3.0 7.0 0.00 0.00 0.00 89 1013.7
20180920134606 77 140 3.0 6.0 0.00 0.00 0.00 89 1013.7
20180920134059 76 171 3.0 8.0 0.00 0.00 0.00 89 1013.5
20180920133553 76 181 3.0 8.0 0.00 0.00 0.00 90 1013.5
20180920133047 76 194 3.0 7.0 0.00 0.00 0.00 91 1013.5
20180920132523 75 162 3.0 7.0 0.00 0.00 0.00 92 1013.5
20180920132058 75 114 2.0 6.0 0.00 0.00 0.00 92 1013.4
20180920131550 74 172 3.0 6.0 0.00 0.00 0.00 92 1013.3
20180920131044 74 176 3.0 7.0 0.00 0.00 0.00 92 1013.2
20180920130534 74 185 3.0 7.0 0.00 0.00 0.00 92 1013.2
20180920130028 74 181 3.0 7.0 0.00 0.00 0.00 92 1013.1
20180920125601 74 166 3.0 5.0 0.00 0.00 0.00 92 1013.1
20180920125038 74 149 2.0 5.0 0.00 0.00 0.00 93 1013.1
20180920124511 74 162 1.0 5.0 0.00 0.00 0.00 93 1013.2
20180920124025 74 160 1.0 3.0 0.00 0.00 0.00 93 1013.1
20180920123518 74 154 1.0 3.0 0.00 0.00 0.00 93 1013.0
20180920123030 74 156 0.0 3.0 0.00 0.00 0.00 93 1012.8
20180920122525 74 156 0.0 3.0 0.00 0.00 0.00 92 1012.9
20180920122022 74 159 0.0 3.0 0.00 0.00 0.00 92 1012.8
20180920121523 74 158 1.0 3.0 0.00 0.00 0.00 92 1012.8
20180920121019 74 158 1.0 3.0 0.00 0.00 0.00 92 1012.7
20180920120516 74 151 1.0 3.0 0.00 0.00 0.00 91 1012.7
20180920120023 74 156 0.0 2.0 0.00 0.00 0.00 91 1012.7
20180920115528 74 156 1.0 2.0 0.00 0.00 0.00 91 1012.8
20180920115118 74 156 0.0 3.0 0.00 0.00 0.00 91 1012.8
20180920114649 74 156 1.0 3.0 0.00 0.00 0.00 91 1012.9
20180920114022 75 178 1.0 3.0 0.00 0.00 0.00 91 1012.8
20180920113515 75 178 1.0 3.0 0.00 0.00 0.00 91 1012.8
20180920113029 75 179 0.0 3.0 0.00 0.00 0.00 90 1012.6
20180920112521 75 179 1.0 3.0 0.00 0.00 0.00 90 1012.6
20180920112014 75 177 1.0 3.0 0.00 0.00 0.00 90 1012.5
20180920111527 75 178 1.0 2.0 0.00 0.00 0.00 90 1012.5
20180920111021 75 178 0.0 3.0 0.00 0.00 0.00 90 1012.3
20180920110512 75 178 1.0 2.0 0.00 0.00 0.00 90 1012.4
20180920110029 75 178 1.0 2.0 0.00 0.00 0.00 90 1012.3
20180920105521 75 178 0.0 0.0 0.00 0.00 0.00 90 1012.4
20180920105014 75 178 0.0 1.0 0.00 0.00 0.00 90 1012.3
20180920104528 75 178 0.0 2.0 0.00 0.00 0.00 89 1012.4
20180920104021 75 177 1.0 2.0 0.00 0.00 0.00 89 1012.4
20180920103511 75 177 0.0 3.0 0.00 0.00 0.00 89 1012.3
20180920103024 75 177 1.0 3.0 0.00 0.00 0.00 89 1012.2
20180920102515 75 177 1.0 3.0 0.00 0.00 0.00 89 1012.2
20180920102013 75 177 0.0 3.0 0.00 0.00 0.00 89 1012.2
20180920101525 75 177 1.0 3.0 0.00 0.00 0.00 89 1012.2
20180920101018 76 177 0.0 3.0 0.00 0.00 0.00 89 1012.2
20180920100531 76 177 1.0 3.0 0.00 0.00 0.00 89 1012.2
20180920100023 76 171 1.0 2.0 0.00 0.00 0.00 89 1012.2
20180920095515 76 176 1.0 3.0 0.00 0.00 0.00 88 1012.2
20180920095028 76 176 1.0 3.0 0.00 0.00 0.00 88 1012.1
20180920094520 76 176 1.0 5.0 0.00 0.00 0.00 88 1012.1
20180920094018 76 178 2.0 5.0 0.00 0.00 0.00 88 1012.1
20180920093530 76 188 2.0 5.0 0.00 0.00 0.00 88 1012.1
20180920093022 76 208 2.0 3.0 0.00 0.00 0.00 88 1012.1
20180920092515 76 185 2.0 4.0 0.00 0.00 0.00 88 1012.1
20180920092030 76 172 1.0 4.0 0.00 0.00 0.00 88 1012.1
20180920091524 76 186 1.0 5.0 0.00 0.00 0.00 88 1012.1
20180920091012 76 185 2.0 4.0 0.00 0.00 0.00 88 1012.1
20180920090524 76 161 2.0 4.0 0.00 0.00 0.00 88 1012.1
20180920090021 76 177 1.0 3.0 0.00 0.00 0.00 87 1012.2
20180920085514 76 176 1.0 4.0 0.00 0.00 0.00 87 1012.2
20180920085027 77 146 1.0 5.0 0.00 0.00 0.00 87 1012.2
20180920084519 77 149 2.0 5.0 0.00 0.00 0.00 86 1012.2
20180920084012 77 148 3.0 6.0 0.00 0.00 0.00 86 1012.2
20180920083525 77 173 3.0 7.0 0.00 0.00 0.00 85 1012.2
20180920083017 77 151 2.0 4.0 0.00 0.00 0.00 85 1012.2
20180920082514 77 152 3.0 4.0 0.00 0.00 0.00 85 1012.1
20180920082027 77 175 3.0 5.0 0.00 0.00 0.00 85 1012.2
20180920081519 77 167 2.0 5.0 0.00 0.00 0.00 85 1012.3
20180920081011 78 158 2.0 5.0 0.00 0.00 0.00 84 1012.4
20180920080525 78 155 2.0 4.0 0.00 0.00 0.00 84 1012.3
20180920080016 78 168 2.0 4.0 0.00 0.00 0.00 84 1012.3
20180920075529 78 178 2.0 5.0 0.00 0.00 0.00 84 1012.3
20180920075021 78 185 2.0 5.0 0.00 0.00 0.00 83 1012.4
20180920074517 78 178 2.0 5.0 0.00 0.00 0.00 83 1012.4
20180920074030 78 178 2.0 4.0 0.00 0.00 0.00 83 1012.4
20180920073522 78 153 2.0 8.0 0.00 0.00 0.00 83 1012.4
20180920073015 78 171 3.0 9.0 0.00 0.00 0.00 82 1012.4
20180920072528 79 189 4.0 9.0 0.00 0.00 0.00 82 1012.4
20180920072019 79 168 3.0 6.0 0.00 0.00 0.00 82 1012.4
20180920071511 79 149 3.0 6.0 0.00 0.00 0.00 82 1012.4
20180920071024 79 179 4.0 7.0 0.00 0.00 0.00 82 1012.5
20180920070521 79 187 3.0 8.0 0.00 0.00 0.00 81 1012.5
20180920070014 79 209 3.0 8.0 0.00 0.00 0.00 81 1012.5
20180920065526 79 167 4.0 8.0 0.00 0.00 0.00 81 1012.5
20180920065019 79 191 3.0 7.0 0.00 0.00 0.00 81 1012.5
20180920064512 79 160 3.0 7.0 0.00 0.00 0.00 82 1012.7
20180920064024 79 162 2.0 3.0 0.00 0.00 0.00 81 1012.8
20180920063516 80 149 2.0 5.0 0.00 0.00 0.00 81 1012.7
20180920063029 80 166 2.0 5.0 0.00 0.00 0.00 81 1012.7
20180920062525 80 149 1.0 4.0 0.00 0.00 0.00 80 1012.7
20180920062019 80 140 2.0 4.0 0.00 0.00 0.00 80 1012.8
20180920061510 80 155 1.0 4.0 0.00 0.00 0.00 80 1012.8
20180920061024 80 160 2.0 4.0 0.00 0.00 0.00 80 1012.9
20180920060516 80 151 2.0 4.0 0.00 0.00 0.00 80 1013.0
20180920060029 80 146 2.0 4.0 0.00 0.00 0.00 80 1013.0
20180920055522 80 146 2.0 4.0 0.00 0.00 0.00 79 1013.0
20180920055014 81 173 2.0 7.0 0.00 0.00 0.00 79 1013.0
20180920054511 81 144 3.0 8.0 0.00 0.00 0.00 79 1013.1
20180920054023 81 148 3.0 8.0 0.00 0.00 0.00 79 1013.1
20180920053515 81 143 3.0 5.0 0.00 0.00 0.00 78 1013.2
20180920053029 81 159 2.0 5.0 0.00 0.00 0.00 78 1013.2
20180920052522 81 169 3.0 8.0 0.00 0.00 0.00 78 1013.1
20180920052014 81 171 4.0 7.0 0.00 0.00 0.00 77 1013.1
20180920051525 81 183 3.0 8.0 0.00 0.00 0.00 77 1013.0
20180920051018 81 161 3.0 8.0 0.00 0.00 0.00 77 1013.0
20180920050515 82 171 2.0 6.0 0.00 0.00 0.00 77 1012.9
20180920050029 82 161 3.0 8.0 0.00 0.00 0.00 77 1012.8
20180920045521 82 176 3.0 6.0 0.00 0.00 0.00 76 1012.7
20180920045012 82 169 3.0 7.0 0.00 0.00 0.00 76 1012.6
20180920044524 82 141 2.0 7.0 0.00 0.00 0.00 76 1012.6
20180920044016 82 144 2.0 7.0 0.00 0.00 0.00 75 1012.6
20180920043528 83 146 3.0 7.0 0.00 0.00 0.00 74 1012.6
20180920043021 83 151 2.0 3.0 0.00 0.00 0.00 73 1012.5
20180920042516 83 179 2.0 7.0 0.00 0.00 0.00 73 1012.5
20180920042029 83 192 3.0 7.0 0.00 0.00 0.00 73 1012.5
20180920041522 83 183 3.0 5.0 0.00 0.00 0.00 73 1012.5
20180920041015 83 177 2.0 5.0 0.00 0.00 0.00 73 1012.4
20180920040527 84 183 3.0 6.0 0.00 0.00 0.00 72 1012.4
20180920040021 84 182 3.0 7.0 0.00 0.00 0.00 72 1012.4
20180920035513 84 171 4.0 7.0 0.00 0.00 0.00 72 1012.4
20180920035025 84 181 3.0 8.0 0.00 0.00 0.00 72 1012.2
20180920034521 84 176 4.0 8.0 0.00 0.00 0.00 71 1012.2
20180920034013 84 186 4.0 6.0 0.00 0.00 0.00 71 1012.2
20180920033526 84 176 3.0 7.0 0.00 0.00 0.00 71 1012.2
20180920033019 84 179 4.0 7.0 0.00 0.00 0.00 71 1012.1
20180920032511 84 184 3.0 7.0 0.00 0.00 0.00 71 1012.2
20180920032022 84 173 2.0 5.0 0.00 0.00 0.00 71 1012.1
20180920031516 84 190 3.0 5.0 0.00 0.00 0.00 71 1012.1
20180920031012 84 156 3.0 5.0 0.00 0.00 0.00 71 1012.1
20180920030525 84 172 4.0 6.0 0.00 0.00 0.00 70 1012.0
20180920030018 84 177 4.0 7.0 0.00 0.00 0.00 70 1011.9
20180920025530 84 167 3.0 7.0 0.00 0.00 0.00 70 1011.8
20180920025023 85 176 2.0 5.0 0.00 0.00 0.00 70 1011.7
20180920024515 85 165 2.0 6.0 0.00 0.00 0.00 70 1011.5
20180920024028 85 176 2.0 5.0 0.00 0.00 0.00 70 1011.5
20180920023520 85 180 3.0 6.0 0.00 0.00 0.00 70 1011.4
20180920023019 85 179 2.0 5.0 0.00 0.00 0.00 69 1011.3
20180920022513 85 187 3.0 5.0 0.00 0.00 0.00 69 1011.3
20180920022027 85 178 2.0 6.0 0.00 0.00 0.00 69 1011.2
20180920021521 85 167 2.0 6.0 0.00 0.00 0.00 69 1011.1
20180920021017 85 164 2.0 4.0 0.00 0.00 0.00 69 1011.1
20180920020512 85 153 2.0 4.0 0.00 0.00 0.00 69 1011.0
20180920020011 86 153 2.0 4.0 0.00 0.00 0.00 68 1010.9
20180920015526 86 153 2.0 4.0 0.00 0.00 0.00 68 1011.0
20180920015023 86 154 2.0 5.0 0.00 0.00 0.00 68 1010.8
20180920014516 86 152 3.0 4.0 0.00 0.00 0.00 67 1010.7
20180920014029 87 162 2.0 4.0 0.00 0.00 0.00 67 1010.7
20180920013524 87 151 2.0 5.0 0.00 0.00 0.00 66 1010.7
20180920013018 87 144 2.0 5.0 0.00 0.00 0.00 65 1010.5
20180920012511 87 153 3.0 5.0 0.00 0.00 0.00 65 1010.4
20180920012025 87 157 3.0 5.0 0.00 0.00 0.00 65 1010.3
20180920011523 87 161 2.0 4.0 0.00 0.00 0.00 66 1010.3
20180920011015 87 150 2.0 6.0 0.00 0.00 0.00 66 1010.2
20180920010529 87 147 2.0 6.0 0.00 0.00 0.00 66 1010.2
20180920010021 88 159 2.0 4.0 0.00 0.00 0.00 65 1010.1
20180920005516 88 161 2.0 4.0 0.00 0.00 0.00 65 1010.1
20180920005013 88 159 2.0 4.0 0.00 0.00 0.00 64 1010.1
20180920004529 88 171 1.0 2.0 0.00 0.00 0.00 64 1010.2
20180920004010 88 171 1.0 3.0 0.00 0.00 0.00 64 1010.0
20180920003527 88 155 2.0 4.0 0.00 0.00 0.00 63 1010.0
20180920003024 89 155 2.0 4.0 0.00 0.00 0.00 63 1010.0
20180920002521 89 150 2.0 4.0 0.00 0.00 0.00 62 1010.0
20180920002018 89 149 1.0 4.0 0.00 0.00 0.00 61 1009.9
20180920001514 90 160 2.0 4.0 0.00 0.00 0.00 61 1010.0
20180920001011 90 159 2.0 4.0 0.00 0.00 0.00 60 1010.0
20180920000514 90 161 2.0 4.0 0.00 0.00 0.00 60 1009.9
20180920000029 90 161 2.0 4.0 0.00 0.00 0.00 59 1010.0
20180919235526 91 164 2.0 3.0 0.00 0.00 0.00 59 1010.0
20180919235023 91 152 2.0 6.0 0.00 0.00 0.00 58 1010.0
20180919234053 91 172 3.0 6.0 0.00 0.00 0.00 57 1010.0
20180919233550 91 158 4.0 8.0 0.00 0.00 0.00 56 1010.1
20180919233031 92 175 3.0 6.0 0.00 0.00 0.00 56 1010.0
20180919232528 92 151 2.0 7.0 0.00 0.00 0.00 57 1010.1
20180919232104 92 148 4.0 7.0 0.00 0.00 0.00 55 1010.2
20180919231554 92 177 4.0 7.0 0.00 0.00 0.00 54 1010.1
20180919231047 93 202 3.0 6.0 0.00 0.00 0.00 54 1010.1
20180919230539 93 181 5.0 6.0 0.00 0.00 0.00 53 1010.1
20180919230018 93 193 3.0 6.0 0.00 0.00 0.00 53 1010.0
20180919225555 93 188 2.0 6.0 0.00 0.00 0.00 53 1010.1
20180919225032 93 184 2.0 6.0 0.00 0.00 0.00 54 1010.1
20180919224606 93 174 2.0 7.0 0.00 0.00 0.00 54 1010.2
20180919224100 93 150 4.0 7.0 0.00 0.00 0.00 53 1010.2
20180919223552 93 136 3.0 7.0 0.00 0.00 0.00 54 1010.2
20180919223047 93 161 3.0 9.0 0.00 0.00 0.00 53 1010.1
20180919222540 93 178 5.0 9.0 0.00 0.00 0.00 53 1010.2
20180919222016 94 165 4.0 8.0 0.00 0.00 0.00 52 1010.2
20180919221605 94 165 3.0 7.0 0.00 0.00 0.00 52 1010.3
20180919221042 94 166 2.0 8.0 0.00 0.00 0.00 52 1010.4
20180919220535 94 148 4.0 7.0 0.00 0.00 0.00 52 1010.4
20180919220029 94 153 2.0 8.0 0.00 0.00 0.00 52 1010.5
20180919215602 95 166 4.0 8.0 0.00 0.00 0.00 50 1010.5
20180919215055 95 178 2.0 6.0 0.00 0.00 0.00 51 1010.5
20180919214546 95 203 3.0 6.0 0.00 0.00 0.00 50 1010.5
20180919214039 95 221 4.0 5.0 0.00 0.00 0.00 49 1010.5
20180919213516 94 177 1.0 10.0 0.00 0.00 0.00 51 1010.6
20180919213049 94 184 4.0 10.0 0.00 0.00 0.00 50 1010.7
20180919212543 94 154 5.0 10.0 0.00 0.00 0.00 50 1010.8
20180919212033 94 182 6.0 11.0 0.00 0.00 0.00 51 1010.9
20180919211527 94 200 3.0 10.0 0.00 0.00 0.00 51 1010.9
20180919211020 94 180 5.0 10.0 0.00 0.00 0.00 50 1010.9
20180919210513 94 138 4.0 10.0 0.00 0.00 0.00 52 1011.0
20180919210108 94 171 2.0 8.0 0.00 0.00 0.00 52 1011.0
20180919205541 95 192 5.0 9.0 0.00 0.00 0.00 49 1011.1
20180919205035 95 195 3.0 7.0 0.00 0.00 0.00 50 1011.1
20180919204527 95 204 3.0 9.0 0.00 0.00 0.00 50 1011.2
20180919204020 95 192 2.0 9.0 0.00 0.00 0.00 51 1011.3
20180919203513 95 159 2.0 10.0 0.00 0.00 0.00 52 1011.2
20180919203107 94 163 3.0 11.0 0.00 0.00 0.00 53 1011.3
20180919202600 94 131 3.0 10.0 0.00 0.00 0.00 53 1011.4
20180919202052 94 169 5.0 10.0 0.00 0.00 0.00 53 1011.6
20180919201528 94 220 4.0 8.0 0.00 0.00 0.00 51 1011.6
20180919201101 94 212 3.0 7.0 0.00 0.00 0.00 53 1011.6
20180919200555 94 157 4.0 8.0 0.00 0.00 0.00 53 1011.8
20180919200044 94 161 5.0 10.0 0.00 0.00 0.00 52 1011.9
20180919195538 95 176 5.0 10.0 0.00 0.00 0.00 53 1011.9
20180919195031 94 109 2.0 9.0 0.00 0.00 0.00 53 1012.0
20180919194604 94 176 4.0 9.0 0.00 0.00 0.00 53 1012.2
20180919194055 94 149 2.0 9.0 0.00 0.00 0.00 53 1012.2
20180919193530 95 184 5.0 9.0 0.00 0.00 0.00 52 1012.3
20180919193104 94 242 1.0 6.0 0.00 0.00 0.00 54 1012.3
20180919192556 94 203 4.0 6.0 0.00 0.00 0.00 53 1012.4
20180919192049 93 144 4.0 8.0 0.00 0.00 0.00 54 1012.5
20180919191542 94 179 3.0 10.0 0.00 0.00 0.00 54 1012.6
20180919191035 94 155 4.0 10.0 0.00 0.00 0.00 54 1012.7
20180919190528 94 219 3.0 7.0 0.00 0.00 0.00 52 1012.7
20180919190101 93 165 3.0 7.0 0.00 0.00 0.00 55 1012.8
20180919185537 93 186 2.0 9.0 0.00 0.00 0.00 55 1012.8
20180919185030 93 149 5.0 9.0 0.00 0.00 0.00 55 1012.9
20180919184602 93 188 3.0 8.0 0.00 0.00 0.00 56 1013.1
20180919184055 93 172 5.0 11.0 0.00 0.00 0.00 54 1013.1
20180919183549 93 218 4.0 11.0 0.00 0.00 0.00 55 1013.2
20180919183041 93 203 5.0 9.0 0.00 0.00 0.00 55 1013.2
20180919182518 92 188 4.0 11.0 0.00 0.00 0.00 57 1013.4
20180919182107 92 176 3.0 12.0 0.00 0.00 0.00 56 1013.4
20180919181545 92 187 6.0 12.0 0.00 0.00 0.00 55 1013.5
20180919181037 92 131 3.0 7.0 0.00 0.00 0.00 56 1013.5
20180919180529 92 178 4.0 9.0 0.00 0.00 0.00 55 1013.6
20180919180103 93 187 6.0 9.0 0.00 0.00 0.00 54 1013.7
20180919175557 92 194 4.0 15.0 0.00 0.00 0.00 56 1013.6
20180919175050 92 170 7.0 15.0 0.00 0.00 0.00 56 1013.7
20180919174543 92 201 4.0 11.0 0.00 0.00 0.00 57 1013.7
20180919174019 91 205 3.0 11.0 0.00 0.00 0.00 58 1013.8
20180919173513 91 200 3.0 9.0 0.00 0.00 0.00 57 1013.8
20180919173107 91 189 4.0 9.0 0.00 0.00 0.00 57 1013.9
20180919172600 91 225 5.0 10.0 0.00 0.00 0.00 58 1014.0
20180919172052 91 225 3.0 9.0 0.00 0.00 0.00 58 1014.1
20180919171545 92 196 5.0 10.0 0.00 0.00 0.00 58 1014.1
20180919171039 91 225 3.0 9.0 0.00 0.00 0.00 57 1014.1
20180919170514 91 197 5.0 9.0 0.00 0.00 0.00 56 1014.1
20180919170048 91 173 4.0 10.0 0.00 0.00 0.00 58 1014.2
20180919165541 91 154 5.0 10.0 0.00 0.00 0.00 57 1014.2
20180919165034 91 170 5.0 9.0 0.00 0.00 0.00 56 1014.2
20180919164527 91 165 4.0 9.0 0.00 0.00 0.00 57 1014.2
20180919164020 91 221 3.0 9.0 0.00 0.00 0.00 56 1014.2
20180919163513 91 170 4.0 9.0 0.00 0.00 0.00 56 1014.2
20180919163107 91 184 2.0 8.0 0.00 0.00 0.00 57 1014.2
20180919162559 91 170 3.0 7.0 0.00 0.00 0.00 56 1014.2